O'Neill, NE

8:38 PM CDT on August 19, 2019 (GMT -0500)
The O'Neill Municipal-Baker

Weather History for KONL - July, 2019

Change the Weather History Date:

Monday, July 22, 2019

  Actual Average Record
Temperature  
Mean Temperature 66 °F -  
Max Temperature 77 °F 86 °F 103 °F (1967)
Min Temperature 55 °F 61 °F 47 °F (1990)
Cooling Degree Days 1    
Growing Degree Days 16 (Base 50)    
Moisture  
Dew Point 56 °F    
Average Humidity 73    
Maximum Humidity 98    
Minimum Humidity 43    
Precipitation  
Precipitation 0.01 in - - ()
Sea Level Pressure  
Sea Level Pressure 30.32 in    
Wind  
Wind Speed 6 mph (North)    
Max Wind Speed 10 mph    
Max Gust Speed -    
Visibility 10 miles    
Events      
Averages and records for this station are not official NWS values.
T = Trace of Precipitation, MM = Missing Value Source: NWS Daily Summary

Daily Weather History Graph

Daily Weather History Graph

Search for Another Location

Airport or City:

Astronomy

Jul. 22, 2019 Rise Set
Actual Time 6:17 AM CDT 9:04 PM CDT
Civil Twilight 5:44 AM CDT 9:37 PM CDT
Nautical Twilight 5:02 AM CDT 10:19 PM CDT
Astronomical Twilight 4:14 AM CDT 11:06 PM CDT
Moon No Moon Rise 11:41 AM CDT (7/22)
Length of Visible Light 15h 53m
Length of Day
14h 47m
Waning Gibbous, 72% of the Moon is Illuminated
Jul 22
Waning Gibbous
Jul 24
Last Quarter
Jul 31
New
Aug 7
First Quarter
Aug 15
Full

Hourly Weather History & Observations

Time (CDT) Temp. Dew Point Humidity Pressure Visibility Wind Dir Wind Speed Gust Speed Precip Events Conditions
12:15 AM 58.3 °F 56.3 °F 93% 30.27 in 10.0 mi WNW 4.6 mph - N/A   Clear
12:35 AM 58.1 °F 55.9 °F 93% 30.27 in 10.0 mi WNW 5.8 mph - N/A   Clear
12:55 AM 57.6 °F 55.4 °F 92% 30.28 in 10.0 mi NW 5.8 mph - N/A   Clear
1:15 AM 57.4 °F 55.6 °F 94% 30.28 in 10.0 mi NNW 6.9 mph - N/A   Clear
1:35 AM 56.8 °F 55.4 °F 95% 30.29 in 10.0 mi NW 4.6 mph - N/A   Clear
1:55 AM 56.5 °F 55.4 °F 96% 30.29 in 10.0 mi NW 6.9 mph - N/A   Clear
2:15 AM 56.8 °F 55.6 °F 96% 30.29 in 10.0 mi NNW 6.9 mph - N/A   Clear
2:35 AM 56.8 °F 55.6 °F 96% 30.30 in 10.0 mi NNW 5.8 mph - N/A   Clear
2:55 AM 56.5 °F 55.4 °F 96% 30.30 in 10.0 mi NNW 5.8 mph - N/A   Clear
3:15 AM 55.9 °F 54.9 °F 96% 30.30 in 10.0 mi NNW 6.9 mph - N/A   Clear
3:35 AM 56.7 °F 55.8 °F 97% 30.29 in 10.0 mi NNW 8.1 mph - N/A   Clear
3:55 AM 57.4 °F 56.3 °F 96% 30.30 in 10.0 mi NNW 6.9 mph - N/A   Clear
4:15 AM 57.2 °F 55.9 °F 96% 30.30 in 10.0 mi NW 6.9 mph - N/A   Clear
4:35 AM 57.2 °F 55.9 °F 96% 30.29 in 10.0 mi NW 5.8 mph - N/A   Clear
4:55 AM 56.7 °F 55.6 °F 96% 30.29 in 10.0 mi NW 4.6 mph - N/A   Clear
5:15 AM 56.3 °F 55.4 °F 97% 30.30 in 10.0 mi NNW 6.9 mph - N/A   Clear
5:35 AM 56.5 °F 55.6 °F 97% 30.31 in 10.0 mi NW 8.1 mph - N/A   Clear
5:55 AM 56.3 °F 55.4 °F 97% 30.31 in 10.0 mi NW 5.8 mph - N/A   Clear
6:15 AM 55.6 °F 54.9 °F 97% 30.31 in 7.0 mi NNW 5.8 mph - N/A   Clear
6:35 AM 55.9 °F 55.4 °F 98% 30.32 in 7.0 mi NNW 4.6 mph - N/A   Clear
6:55 AM 56.1 °F 55.4 °F 97% 30.32 in 7.0 mi NNW 5.8 mph - N/A   Clear
7:15 AM 57.2 °F 56.5 °F 97% 30.33 in 7.0 mi NNW 6.9 mph - N/A   Clear
7:35 AM 59.0 °F 58.3 °F 97% 30.33 in 10.0 mi NNW 5.8 mph - 0.01 in   Clear
7:55 AM 60.6 °F 59.5 °F 96% 30.34 in 10.0 mi NNW 5.8 mph - 0.01 in   Clear
8:15 AM 61.7 °F 60.4 °F 96% 30.34 in 10.0 mi North 5.8 mph - N/A   Clear
8:35 AM 63.0 °F 60.8 °F 93% 30.35 in 10.0 mi North 5.8 mph - N/A   Clear
8:55 AM 64.6 °F 61.3 °F 89% 30.35 in 10.0 mi North 4.6 mph - N/A   Clear
9:15 AM 65.5 °F 61.5 °F 87% 30.36 in 10.0 mi North 4.6 mph - N/A   Scattered Clouds
9:35 AM 67.1 °F 60.6 °F 80% 30.36 in 10.0 mi NNE 6.9 mph - N/A   Clear
9:55 AM 67.5 °F 58.8 °F 74% 30.36 in 10.0 mi NE 5.8 mph - N/A   Scattered Clouds
10:15 AM 68.2 °F 56.8 °F 67% 30.36 in 10.0 mi NNE 4.6 mph - N/A   Mostly Cloudy
10:35 AM 68.9 °F 55.9 °F 63% 30.36 in 10.0 mi NNE 4.6 mph - N/A   Scattered Clouds
10:55 AM 69.8 °F 56.3 °F 62% 30.36 in 10.0 mi NNE 4.6 mph - N/A   Scattered Clouds
11:15 AM 70.9 °F 57.2 °F 62% 30.36 in 10.0 mi NE 3.5 mph - N/A   Scattered Clouds
11:35 AM 70.9 °F 57.6 °F 63% 30.36 in 10.0 mi NNW 4.6 mph - N/A   Mostly Cloudy
11:55 AM 71.4 °F 55.4 °F 57% 30.36 in 10.0 mi NNE 6.9 mph - N/A   Scattered Clouds
12:15 PM 72.0 °F 55.4 °F 56% 30.36 in 10.0 mi NNE 6.9 mph - N/A   Clear
12:35 PM 71.8 °F 55.2 °F 56% 30.36 in 10.0 mi North 5.8 mph - N/A   Mostly Cloudy
12:55 PM 72.5 °F 56.3 °F 57% 30.36 in 10.0 mi North 8.1 mph - N/A   Mostly Cloudy
1:15 PM 72.5 °F 55.8 °F 56% 30.35 in 10.0 mi North 6.9 mph - N/A   Scattered Clouds
1:35 PM 73.6 °F 55.2 °F 53% 30.34 in 10.0 mi North 6.9 mph - N/A   Mostly Cloudy
1:55 PM 73.8 °F 54.5 °F 51% 30.34 in 10.0 mi NNE 10.4 mph - N/A   Mostly Cloudy
2:15 PM 73.8 °F 54.3 °F 51% 30.34 in 10.0 mi North 8.1 mph - N/A   Mostly Cloudy
2:35 PM 75.0 °F 54.9 °F 49% 30.34 in 10.0 mi NNE 8.1 mph - N/A   Mostly Cloudy
2:55 PM 75.0 °F 54.1 °F 48% 30.33 in 10.0 mi NE 5.8 mph - N/A   Mostly Cloudy
3:15 PM 75.0 °F 54.3 °F 48% 30.33 in 10.0 mi North 8.1 mph - N/A   Mostly Cloudy
3:35 PM 75.2 °F 54.9 °F 49% 30.33 in 10.0 mi North 6.9 mph - N/A   Scattered Clouds
3:55 PM 76.1 °F 55.2 °F 48% 30.33 in 10.0 mi NE 8.1 mph - N/A   Mostly Cloudy
4:15 PM 74.7 °F 54.0 °F 48% 30.32 in 10.0 mi North 8.1 mph - N/A   Mostly Cloudy
4:35 PM 75.2 °F 54.3 °F 48% 30.31 in 10.0 mi NE 6.9 mph - N/A   Mostly Cloudy
4:55 PM 75.9 °F 54.7 °F 48% 30.30 in 10.0 mi NNE 6.9 mph - N/A   Scattered Clouds
5:15 PM 77.0 °F 54.0 °F 45% 30.30 in 10.0 mi NNE 6.9 mph - N/A   Scattered Clouds
5:35 PM 75.2 °F 53.6 °F 47% 30.30 in 10.0 mi North 6.9 mph - N/A   Clear
5:55 PM 77.0 °F 54.7 °F 46% 30.30 in 10.0 mi NE 9.2 mph - N/A   Mostly Cloudy
6:15 PM 75.4 °F 54.7 °F 48% 30.29 in 10.0 mi NE 4.6 mph - N/A   Scattered Clouds
6:35 PM 76.1 °F 52.3 °F 43% 30.29 in 10.0 mi North 5.8 mph - N/A   Clear
6:55 PM 76.1 °F 54.5 °F 47% 30.29 in 10.0 mi NE 5.8 mph - N/A   Clear
7:15 PM 75.4 °F 53.8 °F 47% 30.29 in 10.0 mi North 4.6 mph - N/A   Clear
7:35 PM 75.0 °F 53.4 °F 47% 30.29 in 10.0 mi NNE 5.8 mph - N/A   Clear
7:55 PM 74.3 °F 55.0 °F 51% 30.29 in 10.0 mi Calm Calm - N/A   Clear
8:15 PM 73.2 °F 55.6 °F 54% 30.29 in 10.0 mi ENE 3.5 mph - N/A   Clear
8:35 PM 72.1 °F 57.0 °F 59% 30.29 in 10.0 mi Calm Calm - N/A   Clear
8:55 PM 71.1 °F 57.0 °F 61% 30.29 in 10.0 mi Calm Calm - N/A   Clear
9:15 PM 69.4 °F 58.5 °F 68% 30.29 in 10.0 mi Calm Calm - N/A   Clear
9:35 PM 68.2 °F 58.1 °F 70% 30.30 in 10.0 mi Calm Calm - N/A   Clear
9:55 PM 65.8 °F 57.7 °F 75% 30.30 in 10.0 mi Calm Calm - N/A   Clear
10:15 PM 65.3 °F 57.2 °F 75% 30.31 in 10.0 mi Calm Calm - N/A   Clear
10:35 PM 65.1 °F 57.0 °F 75% 30.31 in 10.0 mi Calm Calm - N/A   Clear
10:55 PM 63.0 °F 57.2 °F 81% 30.32 in 10.0 mi Calm Calm - N/A   Clear
11:15 PM 62.8 °F 57.4 °F 82% 30.32 in 10.0 mi Calm Calm - N/A   Clear
11:35 PM 63.1 °F 57.4 °F 81% 30.32 in 10.0 mi West 3.5 mph - N/A   Clear
11:55 PM 60.8 °F 57.9 °F 90% 30.33 in 10.0 mi West 3.5 mph - N/A   Clear